Flag for Germany Weather past 2 weeks in Arnsberg, North Rhine-Westphalia, Germany

Now
66 °F

Light rain. Scattered clouds.


Feels Like: 66 °F
Forecast: 52 / 78 °F
Wind: 7 mph from Southwest

Location: Dortmund / Wickede

Current Time: Aug 4, 2015 at 2:24:01 PM

Latest Report: Aug 4, 2015 at 1:50 PM


Visibility: N/A

Pressure: 29.92 "Hg

Humidity: 83%

Dew point: 61 °F

Location of ArnsbergLocation

Historic Weather in Arnsberg — Graph

°F

Arnsberg temperature yesterday

Maximum temperature yesterday: 88 °F (at 3:20 PM)
Minimum temperature yesterday: 61 °F (at 5:20 AM)
Average temperature yesterday: 80 °F

Past Weeks' High & Low Weather Summary

 TemperatureHumidityPressure
High88 °F (Aug 3, 3:20 PM)88% (Jul 20, 9:50 PM)30.15 "Hg (Jul 20, 9:50 PM)
Low45 °F (Jul 31, 5:20 AM)21% (Aug 3, 3:50 PM)29.50 "Hg (Jul 25, 7:50 AM)
Average65 °F60%29.89 "Hg
* Reported Jul 20 1:20 PM — Aug 4 1:20 PM, Arnsberg, Weather by CustomWeather, © 2015

Note: Actual official high and low records may vary slightly from our data, if they occured in-between our weather recording intervals... More about our weather records

Advertising

Arnsberg weather history for previous 24 hours

 ConditionsComfort  
Time TempWeatherWind HumidityBarometerVisibility
1:20 PM
Tue, Aug 4
66 °FLight rain. Scattered clouds.7 mph83%29.92 "HgN/A
12:50 PM66 °FSprinkles. Clear.8 mph78%29.92 "HgN/A
12:20 PM70 °FSprinkles. Clear.14 mph64%29.92 "HgN/A
11:50 AM72 °FSprinkles. Partly sunny.14 mph53%29.92 "HgN/A
11:20 AM75 °FPassing clouds.13 mph47%29.89 "HgN/A
10:50 AM81 °FPassing clouds.9 mph37%29.86 "HgN/A
10:20 AM81 °FSunny.3 mph42%29.86 "Hg10 mi
9:50 AM79 °FSunny.2 mph42%29.86 "Hg10 mi
9:20 AM79 °FSunny.1 mph42%29.86 "Hg10 mi
8:50 AM77 °FSunny.3 mph42%29.86 "Hg10 mi
8:20 AM73 °FMild.10 mph47%29.86 "HgN/A
7:50 AM77 °FPassing clouds.8 mph36%29.83 "HgN/A
7:20 AM75 °FSunny.8 mph39%29.83 "Hg10 mi
6:50 AM72 °FClear.7 mph47%29.80 "Hg10 mi
6:20 AM70 °FClear.7 mph46%29.83 "Hg10 mi
5:50 AM70 °FClear.9 mph50%29.83 "Hg10 mi
5:20 AM70 °FClear.7 mph50%29.83 "Hg10 mi
10:50 PM
Mon, Aug 3
77 °FClear.7 mph36%29.92 "Hg10 mi
10:20 PM77 °FClear.7 mph39%29.92 "Hg10 mi
9:50 PM79 °FSunny.6 mph34%29.92 "Hg10 mi
9:20 PM81 °FSunny.6 mph32%29.92 "Hg10 mi
8:50 PM82 °FSunny.7 mph30%29.92 "Hg10 mi
8:20 PM84 °FSunny.5 mph29%29.92 "Hg10 mi
7:50 PM84 °FSunny.7 mph29%29.92 "Hg10 mi
7:20 PM86 °FSunny.9 mph25%29.92 "Hg10 mi
6:50 PM88 °FPassing clouds.8 mph24%29.92 "HgN/A
6:20 PM88 °FPassing clouds.8 mph24%29.92 "HgN/A
5:50 PM88 °FPassing clouds.8 mph24%29.95 "HgN/A
5:20 PM88 °FPassing clouds.10 mph25%29.95 "HgN/A
4:50 PM88 °FPassing clouds.9 mph22%29.95 "HgN/A
4:20 PM88 °FPassing clouds.9 mph21%29.95 "HgN/A
3:50 PM88 °FPassing clouds.12 mph21%29.95 "HgN/A
3:20 PM88 °FPassing clouds.13 mph22%29.98 "HgN/A
2:20 PM86 °FPassing clouds.14 mph22%29.98 "HgN/A
Weather by CustomWeather, © 2015

See weather overviewHow to use our weather pages